Weather in Mykolaivka

Ukraine / Dnipropetrovsk Region     48°32′41″N   34°42′15″E
temp.,
°C
wind,
m/s
gust,
m/s
humid.,
%
clouds,
%
prec.,
mm/h
press.,
hPa
HPBL,
m
7 may, fri
fri700:00+10n3593100 1.0 1013323
03:00+9nw3595100 1.4 1014177
06:00+8nw22950 0.0 101562
09:00+13wnw227055 0.0 1016563
12:00+17sw134085 0.0 10161768
15:00+19ssw3437100 0.0 10152106
18:00+18ssw564442 0.0 10131346
21:00+14se495444 0.0 1013190
8 may, sat
sat800:00+14s71469100 0.0 1012515
03:00+14s71567100 0.0 1010593
06:00+13s81777100 0.1 1009630
09:00+13s71477100 0.3 1009800
12:00+15sw5983100 0.3 1010901
15:00+12wnw4892100 4.5 1012555
18:00+10nw61082100 3.3 1014736
21:00+9w3878100 3.6 1015372
9 may, sun
sun900:00+7nw61275100 0.0 1017651
03:00+6nnw51383100 0.0 1018703
06:00+5nnw6128271 0.0 1020599
09:00+9nnw711595 0.0 10221246
12:00+13nnw7104333 0.0 10222176
15:00+13nnw694995 0.0 10231813
18:00+13nw695440 0.3 10241439
21:00+9nnw49645 0.3 1026230
10 may, mon
mon1000:00+6nnw34700 0.0 102769
03:00+5nnw35750 0.0 1028100
06:00+5nnw37770 0.0 1029169
09:00+11n58530 0.0 10281167
12:00+14n79395 0.0 10271938
15:00+16n811385 0.0 10251991
18:00+15n7114934 0.0 10251796
21:00+13n61253100 0.0 1024907
11 may, tue
tue1100:00+12n61259100 0.0 1024701
03:00+11n61165100 0.0 1023489
06:00+9n6127233 0.0 1023400
09:00+14nne69635 0.0 1022637
12:00+17ne71165100 0.0 10191163
15:00+15ene7127298 0.1 10201304
18:00+14ene686538 0.1 10201297
21:00+11ese697322 0.3 1021645